<?xml version="1.0" encoding="UTF-8" standalone="no" ?>
<gpx xmlns="http://www.topografix.com/GPX/1/1" xmlns:xsi="http://www.w3.org/2001/XMLSchema-instance" xsi:schemaLocation="http://www.topografix.com/GPX/1/1 http://www.topografix.com/GPX/1/1/gpx.xsd" version="1.1" creator="VisuGPX - https://www.visugpx.com">
  <metadata>
    <name>Velo</name>
    <desc><![CDATA[idor:10246719_102515280_10794639_12973163_1418743_13428926_12998252_13558460_14716825_14357364_14251590]]></desc>
  </metadata>
  <trk>
    <name><![CDATA[Vélodyssée_GesvrineNort_25.6km-10246719]]></name>
    <extensions>
      <line xmlns="http://www.topografix.com/GPX/gpx_style/0/2">
        <color>0000FF</color>
        <width>4</width>
      </line>
    </extensions>
    <trkseg>
      <trkpt lat="47.26852" lon="-1.54605">
        <ele>30</ele>
        <time>2023-11-15T07:10:39Z</time>
      </trkpt>
      <trkpt lat="47.26882" lon="-1.5462">
        <ele>31</ele>
        <time>2023-11-15T07:11:21Z</time>
      </trkpt>
      <trkpt lat="47.26899" lon="-1.54625">
        <ele>32</ele>
        <time>2023-11-15T07:11:44Z</time>
      </trkpt>
      <trkpt lat="47.27013" lon="-1.54619">
        <ele>32</ele>
        <time>2023-11-15T07:14:17Z</time>
      </trkpt>
      <trkpt lat="47.27038" lon="-1.54621">
        <ele>32</ele>
        <time>2023-11-15T07:14:50Z</time>
      </trkpt>
      <trkpt lat="47.27062" lon="-1.54627">
        <ele>32</ele>
        <time>2023-11-15T07:15:23Z</time>
      </trkpt>
      <trkpt lat="47.27136" lon="-1.54647">
        <ele>31</ele>
        <time>2023-11-15T07:17:03Z</time>
      </trkpt>
      <trkpt lat="47.27237" lon="-1.54681">
        <ele>32</ele>
        <time>2023-11-15T07:19:21Z</time>
      </trkpt>
      <trkpt lat="47.27279" lon="-1.54689">
        <ele>32</ele>
        <time>2023-11-15T07:20:18Z</time>
      </trkpt>
      <trkpt lat="47.27333" lon="-1.54707">
        <ele>32</ele>
        <time>2023-11-15T07:21:32Z</time>
      </trkpt>
      <trkpt lat="47.27349" lon="-1.54715">
        <ele>32</ele>
        <time>2023-11-15T07:21:54Z</time>
      </trkpt>
      <trkpt lat="47.27357" lon="-1.54716">
        <ele>33</ele>
        <time>2023-11-15T07:22:05Z</time>
      </trkpt>
      <trkpt lat="47.27368" lon="-1.54724">
        <ele>33</ele>
        <time>2023-11-15T07:22:21Z</time>
      </trkpt>
      <trkpt lat="47.27406" lon="-1.54771">
        <ele>34</ele>
        <time>2023-11-15T07:23:27Z</time>
      </trkpt>
      <trkpt lat="47.27421" lon="-1.54778">
        <ele>34</ele>
        <time>2023-11-15T07:23:48Z</time>
      </trkpt>
      <trkpt lat="47.27449" lon="-1.54762">
        <ele>35</ele>
        <time>2023-11-15T07:24:28Z</time>
      </trkpt>
      <trkpt lat="47.27456" lon="-1.54752">
        <ele>36</ele>
        <time>2023-11-15T07:24:41Z</time>
      </trkpt>
      <trkpt lat="47.27468" lon="-1.54749">
        <ele>36</ele>
        <time>2023-11-15T07:24:58Z</time>
      </trkpt>
      <trkpt lat="47.27487" lon="-1.54749">
        <ele>37</ele>
        <time>2023-11-15T07:25:23Z</time>
      </trkpt>
      <trkpt lat="47.27516" lon="-1.54755">
        <ele>38</ele>
        <time>2023-11-15T07:26:02Z</time>
      </trkpt>
      <trkpt lat="47.27571" lon="-1.54772">
        <ele>37</ele>
        <time>2023-11-15T07:27:17Z</time>
      </trkpt>
      <trkpt lat="47.27577" lon="-1.54776">
        <ele>37</ele>
        <time>2023-11-15T07:27:26Z</time>
      </trkpt>
      <trkpt lat="47.27583" lon="-1.54781">
        <ele>37</ele>
        <time>2023-11-15T07:27:35Z</time>
      </trkpt>
      <trkpt lat="47.27599" lon="-1.54817">
        <ele>38</ele>
        <time>2023-11-15T07:28:14Z</time>
      </trkpt>
      <trkpt lat="47.2761" lon="-1.54826">
        <ele>38</ele>
        <time>2023-11-15T07:28:31Z</time>
      </trkpt>
      <trkpt lat="47.27625" lon="-1.54828">
        <ele>38</ele>
        <time>2023-11-15T07:28:51Z</time>
      </trkpt>
      <trkpt lat="47.27658" lon="-1.54814">
        <ele>38</ele>
        <time>2023-11-15T07:29:37Z</time>
      </trkpt>
      <trkpt lat="47.27687" lon="-1.54816">
        <ele>38</ele>
        <time>2023-11-15T07:30:16Z</time>
      </trkpt>
      <trkpt lat="47.27728" lon="-1.54825">
        <ele>37</ele>
        <time>2023-11-15T07:31:11Z</time>
      </trkpt>
      <trkpt lat="47.28022" lon="-1.5491">
        <ele>25</ele>
        <time>2023-11-15T07:37:51Z</time>
      </trkpt>
      <trkpt lat="47.28142" lon="-1.54948">
        <ele>27</ele>
        <time>2023-11-15T07:40:34Z</time>
      </trkpt>
      <trkpt lat="47.28219" lon="-1.54965">
        <ele>27</ele>
        <time>2023-11-15T07:42:18Z</time>
      </trkpt>
      <trkpt lat="47.28269" lon="-1.54972">
        <ele>28</ele>
        <time>2023-11-15T07:43:25Z</time>
      </trkpt>
      <trkpt lat="47.28291" lon="-1.54987">
        <ele>28</ele>
        <time>2023-11-15T07:43:58Z</time>
      </trkpt>
      <trkpt lat="47.28302" lon="-1.54987">
        <ele>28</ele>
        <time>2023-11-15T07:44:12Z</time>
      </trkpt>
      <trkpt lat="47.28314" lon="-1.54977">
        <ele>28</ele>
        <time>2023-11-15T07:44:31Z</time>
      </trkpt>
      <trkpt lat="47.28323" lon="-1.54975">
        <ele>28</ele>
        <time>2023-11-15T07:44:43Z</time>
      </trkpt>
      <trkpt lat="47.28434" lon="-1.54984">
        <ele>28</ele>
        <time>2023-11-15T07:47:11Z</time>
      </trkpt>
      <trkpt lat="47.28504" lon="-1.54982">
        <ele>27</ele>
        <time>2023-11-15T07:48:45Z</time>
      </trkpt>
      <trkpt lat="47.28513" lon="-1.54985">
        <ele>27</ele>
        <time>2023-11-15T07:48:57Z</time>
      </trkpt>
      <trkpt lat="47.28533" lon="-1.55017">
        <ele>27</ele>
        <time>2023-11-15T07:49:36Z</time>
      </trkpt>
      <trkpt lat="47.28554" lon="-1.55044">
        <ele>27</ele>
        <time>2023-11-15T07:50:14Z</time>
      </trkpt>
      <trkpt lat="47.2856" lon="-1.55046">
        <ele>26</ele>
        <time>2023-11-15T07:50:22Z</time>
      </trkpt>
      <trkpt lat="47.28567" lon="-1.55046">
        <ele>26</ele>
        <time>2023-11-15T07:50:31Z</time>
      </trkpt>
      <trkpt lat="47.28572" lon="-1.55042">
        <ele>26</ele>
        <time>2023-11-15T07:50:39Z</time>
      </trkpt>
      <trkpt lat="47.28595" lon="-1.54993">
        <ele>26</ele>
        <time>2023-11-15T07:51:33Z</time>
      </trkpt>
      <trkpt lat="47.28607" lon="-1.54978">
        <ele>25</ele>
        <time>2023-11-15T07:51:54Z</time>
      </trkpt>
      <trkpt lat="47.28614" lon="-1.54975">
        <ele>25</ele>
        <time>2023-11-15T07:52:03Z</time>
      </trkpt>
      <trkpt lat="47.28803" lon="-1.54946">
        <ele>26</ele>
        <time>2023-11-15T07:56:17Z</time>
      </trkpt>
      <trkpt lat="47.28931" lon="-1.54923">
        <ele>27</ele>
        <time>2023-11-15T07:59:09Z</time>
      </trkpt>
      <trkpt lat="47.2897" lon="-1.54926">
        <ele>26</ele>
        <time>2023-11-15T08:00:01Z</time>
      </trkpt>
      <trkpt lat="47.28984" lon="-1.5493">
        <ele>26</ele>
        <time>2023-11-15T08:00:20Z</time>
      </trkpt>
      <trkpt lat="47.29002" lon="-1.54943">
        <ele>25</ele>
        <time>2023-11-15T08:00:47Z</time>
      </trkpt>
      <trkpt lat="47.29016" lon="-1.54933">
        <ele>26</ele>
        <time>2023-11-15T08:01:08Z</time>
      </trkpt>
      <trkpt lat="47.29034" lon="-1.54931">
        <ele>26</ele>
        <time>2023-11-15T08:01:32Z</time>
      </trkpt>
      <trkpt lat="47.29039" lon="-1.54922">
        <ele>26</ele>
        <time>2023-11-15T08:01:42Z</time>
      </trkpt>
      <trkpt lat="47.29046" lon="-1.54917">
        <ele>27</ele>
        <time>2023-11-15T08:01:53Z</time>
      </trkpt>
      <trkpt lat="47.29052" lon="-1.54916">
        <ele>27</ele>
        <time>2023-11-15T08:02:01Z</time>
      </trkpt>
      <trkpt lat="47.2914" lon="-1.54915">
        <ele>27</ele>
        <time>2023-11-15T08:03:58Z</time>
      </trkpt>
      <trkpt lat="47.29227" lon="-1.5491">
        <ele>28</ele>
        <time>2023-11-15T08:05:54Z</time>
      </trkpt>
      <trkpt lat="47.29251" lon="-1.54922">
        <ele>29</ele>
        <time>2023-11-15T08:06:28Z</time>
      </trkpt>
      <trkpt lat="47.29287" lon="-1.54917">
        <ele>30</ele>
        <time>2023-11-15T08:07:16Z</time>
      </trkpt>
      <trkpt lat="47.29306" lon="-1.54919">
        <ele>30</ele>
        <time>2023-11-15T08:07:42Z</time>
      </trkpt>
      <trkpt lat="47.29343" lon="-1.54912">
        <ele>31</ele>
        <time>2023-11-15T08:08:32Z</time>
      </trkpt>
      <trkpt lat="47.29356" lon="-1.54899">
        <ele>30</ele>
        <time>2023-11-15T08:08:53Z</time>
      </trkpt>
      <trkpt lat="47.29365" lon="-1.54895">
        <ele>30</ele>
        <time>2023-11-15T08:09:05Z</time>
      </trkpt>
      <trkpt lat="47.29407" lon="-1.54893">
        <ele>31</ele>
        <time>2023-11-15T08:10:01Z</time>
      </trkpt>
      <trkpt lat="47.29445" lon="-1.54886">
        <ele>31</ele>
        <time>2023-11-15T08:10:52Z</time>
      </trkpt>
      <trkpt lat="47.29469" lon="-1.54887">
        <ele>30</ele>
        <time>2023-11-15T08:11:24Z</time>
      </trkpt>
      <trkpt lat="47.29487" lon="-1.54891">
        <ele>31</ele>
        <time>2023-11-15T08:11:49Z</time>
      </trkpt>
      <trkpt lat="47.29585" lon="-1.54888">
        <ele>29</ele>
        <time>2023-11-15T08:14:00Z</time>
      </trkpt>
      <trkpt lat="47.29603" lon="-1.54884">
        <ele>29</ele>
        <time>2023-11-15T08:14:24Z</time>
      </trkpt>
      <trkpt lat="47.29618" lon="-1.54876">
        <ele>28</ele>
        <time>2023-11-15T08:14:45Z</time>
      </trkpt>
      <trkpt lat="47.29694" lon="-1.54859">
        <ele>27</ele>
        <time>2023-11-15T08:16:28Z</time>
      </trkpt>
      <trkpt lat="47.29712" lon="-1.54852">
        <ele>27</ele>
        <time>2023-11-15T08:16:53Z</time>
      </trkpt>
      <trkpt lat="47.29728" lon="-1.54855">
        <ele>27</ele>
        <time>2023-11-15T08:17:14Z</time>
      </trkpt>
      <trkpt lat="47.29786" lon="-1.54838">
        <ele>25</ele>
        <time>2023-11-15T08:18:33Z</time>
      </trkpt>
      <trkpt lat="47.29809" lon="-1.54845">
        <ele>25</ele>
        <time>2023-11-15T08:19:04Z</time>
      </trkpt>
      <trkpt lat="47.29833" lon="-1.54841">
        <ele>24</ele>
        <time>2023-11-15T08:19:37Z</time>
      </trkpt>
      <trkpt lat="47.29937" lon="-1.5481">
        <ele>26</ele>
        <time>2023-11-15T08:21:58Z</time>
      </trkpt>
      <trkpt lat="47.30078" lon="-1.54757">
        <ele>24</ele>
        <time>2023-11-15T08:25:12Z</time>
      </trkpt>
      <trkpt lat="47.30145" lon="-1.54724">
        <ele>23</ele>
        <time>2023-11-15T08:26:47Z</time>
      </trkpt>
      <trkpt lat="47.30254" lon="-1.54664">
        <ele>21</ele>
        <time>2023-11-15T08:29:22Z</time>
      </trkpt>
      <trkpt lat="47.30274" lon="-1.54656">
        <ele>20</ele>
        <time>2023-11-15T08:29:49Z</time>
      </trkpt>
      <trkpt lat="47.30291" lon="-1.54658">
        <ele>20</ele>
        <time>2023-11-15T08:30:12Z</time>
      </trkpt>
      <trkpt lat="47.30311" lon="-1.54668">
        <ele>19</ele>
        <time>2023-11-15T08:30:40Z</time>
      </trkpt>
      <trkpt lat="47.30325" lon="-1.5467">
        <ele>18</ele>
        <time>2023-11-15T08:30:59Z</time>
      </trkpt>
      <trkpt lat="47.30332" lon="-1.54669">
        <ele>18</ele>
        <time>2023-11-15T08:31:09Z</time>
      </trkpt>
      <trkpt lat="47.30362" lon="-1.54656">
        <ele>19</ele>
        <time>2023-11-15T08:31:50Z</time>
      </trkpt>
      <trkpt lat="47.30372" lon="-1.54645">
        <ele>20</ele>
        <time>2023-11-15T08:32:07Z</time>
      </trkpt>
      <trkpt lat="47.30398" lon="-1.54606">
        <ele>21</ele>
        <time>2023-11-15T08:32:56Z</time>
      </trkpt>
      <trkpt lat="47.30423" lon="-1.54579">
        <ele>22</ele>
        <time>2023-11-15T08:33:38Z</time>
      </trkpt>
      <trkpt lat="47.30518" lon="-1.54506">
        <ele>26</ele>
        <time>2023-11-15T08:36:01Z</time>
      </trkpt>
      <trkpt lat="47.30571" lon="-1.54462">
        <ele>27</ele>
        <time>2023-11-15T08:37:22Z</time>
      </trkpt>
      <trkpt lat="47.30672" lon="-1.54369">
        <ele>26</ele>
        <time>2023-11-15T08:40:01Z</time>
      </trkpt>
      <trkpt lat="47.30719" lon="-1.54331">
        <ele>24</ele>
        <time>2023-11-15T08:41:12Z</time>
      </trkpt>
      <trkpt lat="47.30736" lon="-1.54313">
        <ele>23</ele>
        <time>2023-11-15T08:41:40Z</time>
      </trkpt>
      <trkpt lat="47.30757" lon="-1.54304">
        <ele>22</ele>
        <time>2023-11-15T08:42:09Z</time>
      </trkpt>
      <trkpt lat="47.30769" lon="-1.54302">
        <ele>22</ele>
        <time>2023-11-15T08:42:26Z</time>
      </trkpt>
      <trkpt lat="47.30823" lon="-1.54275">
        <ele>19</ele>
        <time>2023-11-15T08:43:42Z</time>
      </trkpt>
      <trkpt lat="47.30839" lon="-1.54271">
        <ele>18</ele>
        <time>2023-11-15T08:44:03Z</time>
      </trkpt>
      <trkpt lat="47.3088" lon="-1.54268">
        <ele>16</ele>
        <time>2023-11-15T08:44:58Z</time>
      </trkpt>
      <trkpt lat="47.30931" lon="-1.54272">
        <ele>15</ele>
        <time>2023-11-15T08:46:06Z</time>
      </trkpt>
      <trkpt lat="47.30969" lon="-1.5429">
        <ele>14</ele>
        <time>2023-11-15T08:46:59Z</time>
      </trkpt>
      <trkpt lat="47.30977" lon="-1.54291">
        <ele>14</ele>
        <time>2023-11-15T08:47:10Z</time>
      </trkpt>
      <trkpt lat="47.30995" lon="-1.54284">
        <ele>13</ele>
        <time>2023-11-15T08:47:35Z</time>
      </trkpt>
      <trkpt lat="47.31021" lon="-1.54282">
        <ele>12</ele>
        <time>2023-11-15T08:48:10Z</time>
      </trkpt>
      <trkpt lat="47.31104" lon="-1.5429">
        <ele>10</ele>
        <time>2023-11-15T08:50:01Z</time>
      </trkpt>
      <trkpt lat="47.31143" lon="-1.54289">
        <ele>9</ele>
        <time>2023-11-15T08:50:53Z</time>
      </trkpt>
      <trkpt lat="47.31167" lon="-1.54292">
        <ele>9</ele>
        <time>2023-11-15T08:51:25Z</time>
      </trkpt>
      <trkpt lat="47.31196" lon="-1.54301">
        <ele>8</ele>
        <time>2023-11-15T08:52:05Z</time>
      </trkpt>
      <trkpt lat="47.31202" lon="-1.54305">
        <ele>8</ele>
        <time>2023-11-15T08:52:13Z</time>
      </trkpt>
      <trkpt lat="47.31212" lon="-1.54323">
        <ele>8</ele>
        <time>2023-11-15T08:52:34Z</time>
      </trkpt>
      <trkpt lat="47.31225" lon="-1.5433">
        <ele>8</ele>
        <time>2023-11-15T08:52:53Z</time>
      </trkpt>
      <trkpt lat="47.31234" lon="-1.54329">
        <ele>8</ele>
        <time>2023-11-15T08:53:05Z</time>
      </trkpt>
      <trkpt lat="47.31254" lon="-1.54307">
        <ele>7</ele>
        <time>2023-11-15T08:53:38Z</time>
      </trkpt>
      <trkpt lat="47.31277" lon="-1.54303">
        <ele>7</ele>
        <time>2023-11-15T08:54:09Z</time>
      </trkpt>
      <trkpt lat="47.31334" lon="-1.54307">
        <ele>9</ele>
        <time>2023-11-15T08:55:25Z</time>
      </trkpt>
      <trkpt lat="47.31352" lon="-1.54316">
        <ele>9</ele>
        <time>2023-11-15T08:55:51Z</time>
      </trkpt>
      <trkpt lat="47.3142" lon="-1.54323">
        <ele>8</ele>
        <time>2023-11-15T08:57:22Z</time>
      </trkpt>
      <trkpt lat="47.3145" lon="-1.54332">
        <ele>7</ele>
        <time>2023-11-15T08:58:02Z</time>
      </trkpt>
      <trkpt lat="47.315" lon="-1.54335">
        <ele>6</ele>
        <time>2023-11-15T08:59:09Z</time>
      </trkpt>
      <trkpt lat="47.31517" lon="-1.54326">
        <ele>6</ele>
        <time>2023-11-15T08:59:33Z</time>
      </trkpt>
      <trkpt lat="47.31598" lon="-1.54329">
        <ele>9</ele>
        <time>2023-11-15T09:01:21Z</time>
      </trkpt>
      <trkpt lat="47.31612" lon="-1.54326">
        <ele>10</ele>
        <time>2023-11-15T09:01:40Z</time>
      </trkpt>
      <trkpt lat="47.31631" lon="-1.54313">
        <ele>11</ele>
        <time>2023-11-15T09:02:08Z</time>
      </trkpt>
      <trkpt lat="47.31643" lon="-1.54295">
        <ele>11</ele>
        <time>2023-11-15T09:02:31Z</time>
      </trkpt>
      <trkpt lat="47.31701" lon="-1.54253">
        <ele>10</ele>
        <time>2023-11-15T09:03:57Z</time>
      </trkpt>
      <trkpt lat="47.31755" lon="-1.54196">
        <ele>11</ele>
        <time>2023-11-15T09:05:26Z</time>
      </trkpt>
      <trkpt lat="47.31769" lon="-1.54177">
        <ele>12</ele>
        <time>2023-11-15T09:05:51Z</time>
      </trkpt>
      <trkpt lat="47.31816" lon="-1.5409">
        <ele>12</ele>
        <time>2023-11-15T09:07:32Z</time>
      </trkpt>
      <trkpt lat="47.31967" lon="-1.53785">
        <ele>11</ele>
        <time>2023-11-15T09:13:14Z</time>
      </trkpt>
      <trkpt lat="47.3199" lon="-1.5376">
        <ele>11</ele>
        <time>2023-11-15T09:13:52Z</time>
      </trkpt>
      <trkpt lat="47.32" lon="-1.53744">
        <ele>11</ele>
        <time>2023-11-15T09:14:11Z</time>
      </trkpt>
      <trkpt lat="47.32033" lon="-1.53718">
        <ele>11</ele>
        <time>2023-11-15T09:15:01Z</time>
      </trkpt>
      <trkpt lat="47.32045" lon="-1.53706">
        <ele>12</ele>
        <time>2023-11-15T09:15:21Z</time>
      </trkpt>
      <trkpt lat="47.32056" lon="-1.5369">
        <ele>12</ele>
        <time>2023-11-15T09:15:41Z</time>
      </trkpt>
      <trkpt lat="47.32062" lon="-1.5367">
        <ele>14</ele>
        <time>2023-11-15T09:16:01Z</time>
      </trkpt>
      <trkpt lat="47.32066" lon="-1.53637">
        <ele>14</ele>
        <time>2023-11-15T09:16:31Z</time>
      </trkpt>
      <trkpt lat="47.32077" lon="-1.53615">
        <ele>15</ele>
        <time>2023-11-15T09:16:56Z</time>
      </trkpt>
      <trkpt lat="47.32105" lon="-1.53594">
        <ele>15</ele>
        <time>2023-11-15T09:17:38Z</time>
      </trkpt>
      <trkpt lat="47.32123" lon="-1.53587">
        <ele>15</ele>
        <time>2023-11-15T09:18:03Z</time>
      </trkpt>
      <trkpt lat="47.322" lon="-1.53583">
        <ele>15</ele>
        <time>2023-11-15T09:19:46Z</time>
      </trkpt>
      <trkpt lat="47.32222" lon="-1.53586">
        <ele>14</ele>
        <time>2023-11-15T09:20:15Z</time>
      </trkpt>
      <trkpt lat="47.32233" lon="-1.53584">
        <ele>14</ele>
        <time>2023-11-15T09:20:30Z</time>
      </trkpt>
      <trkpt lat="47.32239" lon="-1.53578">
        <ele>14</ele>
        <time>2023-11-15T09:20:40Z</time>
      </trkpt>
      <trkpt lat="47.32247" lon="-1.53562">
        <ele>15</ele>
        <time>2023-11-15T09:20:58Z</time>
      </trkpt>
      <trkpt lat="47.3225" lon="-1.53538">
        <ele>15</ele>
        <time>2023-11-15T09:21:20Z</time>
      </trkpt>
      <trkpt lat="47.3225" lon="-1.5351">
        <ele>16</ele>
        <time>2023-11-15T09:21:45Z</time>
      </trkpt>
      <trkpt lat="47.32256" lon="-1.53508">
        <ele>16</ele>
        <time>2023-11-15T09:21:53Z</time>
      </trkpt>
      <trkpt lat="47.32336" lon="-1.53555">
        <ele>19</ele>
        <time>2023-11-15T09:23:48Z</time>
      </trkpt>
      <trkpt lat="47.32573" lon="-1.53671">
        <ele>29</ele>
        <time>2023-11-15T09:29:21Z</time>
      </trkpt>
      <trkpt lat="47.32606" lon="-1.53685">
        <ele>28</ele>
        <time>2023-11-15T09:30:07Z</time>
      </trkpt>
      <trkpt lat="47.32648" lon="-1.53698">
        <ele>26</ele>
        <time>2023-11-15T09:31:04Z</time>
      </trkpt>
      <trkpt lat="47.32669" lon="-1.53697">
        <ele>25</ele>
        <time>2023-11-15T09:31:33Z</time>
      </trkpt>
      <trkpt lat="47.32717" lon="-1.53701">
        <ele>23</ele>
        <time>2023-11-15T09:32:37Z</time>
      </trkpt>
      <trkpt lat="47.32742" lon="-1.53697">
        <ele>21</ele>
        <time>2023-11-15T09:33:10Z</time>
      </trkpt>
      <trkpt lat="47.32758" lon="-1.5369">
        <ele>20</ele>
        <time>2023-11-15T09:33:33Z</time>
      </trkpt>
      <trkpt lat="47.32856" lon="-1.53676">
        <ele>16</ele>
        <time>2023-11-15T09:35:44Z</time>
      </trkpt>
      <trkpt lat="47.32852" lon="-1.53663">
        <ele>16</ele>
        <time>2023-11-15T09:35:57Z</time>
      </trkpt>
      <trkpt lat="47.32829" lon="-1.53626">
        <ele>17</ele>
        <time>2023-11-15T09:36:42Z</time>
      </trkpt>
      <trkpt lat="47.3283" lon="-1.53615">
        <ele>17</ele>
        <time>2023-11-15T09:36:52Z</time>
      </trkpt>
      <trkpt lat="47.32835" lon="-1.53608">
        <ele>16</ele>
        <time>2023-11-15T09:37:01Z</time>
      </trkpt>
      <trkpt lat="47.32891" lon="-1.5356">
        <ele>14</ele>
        <time>2023-11-15T09:38:28Z</time>
      </trkpt>
      <trkpt lat="47.32948" lon="-1.53532">
        <ele>13</ele>
        <time>2023-11-15T09:39:48Z</time>
      </trkpt>
      <trkpt lat="47.32977" lon="-1.53522">
        <ele>12</ele>
        <time>2023-11-15T09:40:28Z</time>
      </trkpt>
      <trkpt lat="47.32988" lon="-1.53515">
        <ele>12</ele>
        <time>2023-11-15T09:40:44Z</time>
      </trkpt>
      <trkpt lat="47.33011" lon="-1.53491">
        <ele>13</ele>
        <time>2023-11-15T09:41:21Z</time>
      </trkpt>
      <trkpt lat="47.33028" lon="-1.53482">
        <ele>14</ele>
        <time>2023-11-15T09:41:45Z</time>
      </trkpt>
      <trkpt lat="47.33093" lon="-1.53466">
        <ele>17</ele>
        <time>2023-11-15T09:43:13Z</time>
      </trkpt>
      <trkpt lat="47.33128" lon="-1.53463">
        <ele>19</ele>
        <time>2023-11-15T09:44:00Z</time>
      </trkpt>
      <trkpt lat="47.33141" lon="-1.53468">
        <ele>20</ele>
        <time>2023-11-15T09:44:18Z</time>
      </trkpt>
      <trkpt lat="47.33183" lon="-1.53477">
        <ele>22</ele>
        <time>2023-11-15T09:45:15Z</time>
      </trkpt>
      <trkpt lat="47.33202" lon="-1.53484">
        <ele>22</ele>
        <time>2023-11-15T09:45:41Z</time>
      </trkpt>
      <trkpt lat="47.33244" lon="-1.53505">
        <ele>23</ele>
        <time>2023-11-15T09:46:40Z</time>
      </trkpt>
      <trkpt lat="47.33255" lon="-1.53514">
        <ele>23</ele>
        <time>2023-11-15T09:46:57Z</time>
      </trkpt>
      <trkpt lat="47.3326" lon="-1.53548">
        <ele>22</ele>
        <time>2023-11-15T09:47:28Z</time>
      </trkpt>
      <trkpt lat="47.33312" lon="-1.5353">
        <ele>22</ele>
        <time>2023-11-15T09:48:40Z</time>
      </trkpt>
      <trkpt lat="47.33378" lon="-1.53503">
        <ele>21</ele>
        <time>2023-11-15T09:50:11Z</time>
      </trkpt>
      <trkpt lat="47.3341" lon="-1.53499">
        <ele>20</ele>
        <time>2023-11-15T09:50:54Z</time>
      </trkpt>
      <trkpt lat="47.3349" lon="-1.53483">
        <ele>17</ele>
        <time>2023-11-15T09:52:42Z</time>
      </trkpt>
      <trkpt lat="47.33496" lon="-1.53477">
        <ele>17</ele>
        <time>2023-11-15T09:52:51Z</time>
      </trkpt>
      <trkpt lat="47.33499" lon="-1.53466">
        <ele>17</ele>
        <time>2023-11-15T09:53:02Z</time>
      </trkpt>
      <trkpt lat="47.33519" lon="-1.53308">
        <ele>16</ele>
        <time>2023-11-15T09:55:27Z</time>
      </trkpt>
      <trkpt lat="47.33523" lon="-1.53297">
        <ele>16</ele>
        <time>2023-11-15T09:55:39Z</time>
      </trkpt>
      <trkpt lat="47.3353" lon="-1.5329">
        <ele>16</ele>
        <time>2023-11-15T09:55:50Z</time>
      </trkpt>
      <trkpt lat="47.33561" lon="-1.5327">
        <ele>14</ele>
        <time>2023-11-15T09:56:35Z</time>
      </trkpt>
      <trkpt lat="47.33653" lon="-1.53216">
        <ele>9</ele>
        <time>2023-11-15T09:58:47Z</time>
      </trkpt>
      <trkpt lat="47.33699" lon="-1.53192">
        <ele>7</ele>
        <time>2023-11-15T09:59:52Z</time>
      </trkpt>
      <trkpt lat="47.33704" lon="-1.53187">
        <ele>7</ele>
        <time>2023-11-15T10:00:00Z</time>
      </trkpt>
      <trkpt lat="47.33717" lon="-1.53184">
        <ele>7</ele>
        <time>2023-11-15T10:00:18Z</time>
      </trkpt>
      <trkpt lat="47.33774" lon="-1.5315">
        <ele>7</ele>
        <time>2023-11-15T10:01:40Z</time>
      </trkpt>
      <trkpt lat="47.33807" lon="-1.53084">
        <ele>6</ele>
        <time>2023-11-15T10:02:54Z</time>
      </trkpt>
      <trkpt lat="47.33816" lon="-1.53058">
        <ele>6</ele>
        <time>2023-11-15T10:03:21Z</time>
      </trkpt>
      <trkpt lat="47.3382" lon="-1.53054">
        <ele>6</ele>
        <time>2023-11-15T10:03:27Z</time>
      </trkpt>
      <trkpt lat="47.33826" lon="-1.53059">
        <ele>6</ele>
        <time>2023-11-15T10:03:36Z</time>
      </trkpt>
      <trkpt lat="47.33861" lon="-1.53118">
        <ele>7</ele>
        <time>2023-11-15T10:04:47Z</time>
      </trkpt>
      <trkpt lat="47.33865" lon="-1.53122">
        <ele>8</ele>
        <time>2023-11-15T10:04:54Z</time>
      </trkpt>
      <trkpt lat="47.33873" lon="-1.5312">
        <ele>8</ele>
        <time>2023-11-15T10:05:04Z</time>
      </trkpt>
      <trkpt lat="47.33973" lon="-1.5286">
        <ele>9</ele>
        <time>2023-11-15T10:09:35Z</time>
      </trkpt>
      <trkpt lat="47.33993" lon="-1.52876">
        <ele>10</ele>
        <time>2023-11-15T10:10:05Z</time>
      </trkpt>
      <trkpt lat="47.34007" lon="-1.52891">
        <ele>10</ele>
        <time>2023-11-15T10:10:28Z</time>
      </trkpt>
      <trkpt lat="47.34011" lon="-1.5285">
        <ele>10</ele>
        <time>2023-11-15T10:11:06Z</time>
      </trkpt>
      <trkpt lat="47.34018" lon="-1.5281">
        <ele>11</ele>
        <time>2023-11-15T10:11:43Z</time>
      </trkpt>
      <trkpt lat="47.34029" lon="-1.52778">
        <ele>11</ele>
        <time>2023-11-15T10:12:15Z</time>
      </trkpt>
      <trkpt lat="47.34058" lon="-1.52652">
        <ele>14</ele>
        <time>2023-11-15T10:14:16Z</time>
      </trkpt>
      <trkpt lat="47.34048" lon="-1.52646">
        <ele>14</ele>
        <time>2023-11-15T10:14:30Z</time>
      </trkpt>
      <trkpt lat="47.33941" lon="-1.52602">
        <ele>7</ele>
        <time>2023-11-15T10:16:58Z</time>
      </trkpt>
      <trkpt lat="47.33947" lon="-1.52516">
        <ele>7</ele>
        <time>2023-11-15T10:18:17Z</time>
      </trkpt>
      <trkpt lat="47.33951" lon="-1.52495">
        <ele>7</ele>
        <time>2023-11-15T10:18:36Z</time>
      </trkpt>
      <trkpt lat="47.33993" lon="-1.52476">
        <ele>9</ele>
        <time>2023-11-15T10:19:35Z</time>
      </trkpt>
      <trkpt lat="47.34017" lon="-1.52468">
        <ele>11</ele>
        <time>2023-11-15T10:20:08Z</time>
      </trkpt>
      <trkpt lat="47.34029" lon="-1.52519">
        <ele>12</ele>
        <time>2023-11-15T10:20:57Z</time>
      </trkpt>
      <trkpt lat="47.34031" lon="-1.52542">
        <ele>13</ele>
        <time>2023-11-15T10:21:18Z</time>
      </trkpt>
      <trkpt lat="47.34039" lon="-1.5256">
        <ele>13</ele>
        <time>2023-11-15T10:21:37Z</time>
      </trkpt>
      <trkpt lat="47.34051" lon="-1.52555">
        <ele>14</ele>
        <time>2023-11-15T10:21:54Z</time>
      </trkpt>
      <trkpt lat="47.34062" lon="-1.52542">
        <ele>15</ele>
        <time>2023-11-15T10:22:12Z</time>
      </trkpt>
      <trkpt lat="47.34067" lon="-1.525">
        <ele>14</ele>
        <time>2023-11-15T10:22:51Z</time>
      </trkpt>
      <trkpt lat="47.34073" lon="-1.52492">
        <ele>14</ele>
        <time>2023-11-15T10:23:02Z</time>
      </trkpt>
      <trkpt lat="47.34126" lon="-1.52506">
        <ele>18</ele>
        <time>2023-11-15T10:24:14Z</time>
      </trkpt>
      <trkpt lat="47.34126" lon="-1.52524">
        <ele>18</ele>
        <time>2023-11-15T10:24:30Z</time>
      </trkpt>
      <trkpt lat="47.34151" lon="-1.52533">
        <ele>20</ele>
        <time>2023-11-15T10:25:04Z</time>
      </trkpt>
      <trkpt lat="47.34159" lon="-1.52544">
        <ele>21</ele>
        <time>2023-11-15T10:25:19Z</time>
      </trkpt>
      <trkpt lat="47.34174" lon="-1.52489">
        <ele>22</ele>
        <time>2023-11-15T10:26:12Z</time>
      </trkpt>
      <trkpt lat="47.34181" lon="-1.52492">
        <ele>22</ele>
        <time>2023-11-15T10:26:22Z</time>
      </trkpt>
      <trkpt lat="47.34187" lon="-1.52468">
        <ele>23</ele>
        <time>2023-11-15T10:26:45Z</time>
      </trkpt>
      <trkpt lat="47.34233" lon="-1.5249">
        <ele>27</ele>
        <time>2023-11-15T10:27:50Z</time>
      </trkpt>
      <trkpt lat="47.34245" lon="-1.52519">
        <ele>28</ele>
        <time>2023-11-15T10:28:21Z</time>
      </trkpt>
      <trkpt lat="47.34255" lon="-1.52534">
        <ele>27</ele>
        <time>2023-11-15T10:28:40Z</time>
      </trkpt>
      <trkpt lat="47.34276" lon="-1.52545">
        <ele>27</ele>
        <time>2023-11-15T10:29:09Z</time>
      </trkpt>
      <trkpt lat="47.34296" lon="-1.52582">
        <ele>25</ele>
        <time>2023-11-15T10:29:52Z</time>
      </trkpt>
      <trkpt lat="47.34303" lon="-1.52606">
        <ele>23</ele>
        <time>2023-11-15T10:30:16Z</time>
      </trkpt>
      <trkpt lat="47.34396" lon="-1.52706">
        <ele>20</ele>
        <time>2023-11-15T10:32:49Z</time>
      </trkpt>
      <trkpt lat="47.34405" lon="-1.52711">
        <ele>20</ele>
        <time>2023-11-15T10:33:02Z</time>
      </trkpt>
      <trkpt lat="47.34511" lon="-1.52549">
        <ele>23</ele>
        <time>2023-11-15T10:36:26Z</time>
      </trkpt>
      <trkpt lat="47.34521" lon="-1.52539">
        <ele>23</ele>
        <time>2023-11-15T10:36:42Z</time>
      </trkpt>
      <trkpt lat="47.34538" lon="-1.5253">
        <ele>23</ele>
        <time>2023-11-15T10:37:06Z</time>
      </trkpt>
      <trkpt lat="47.3457" lon="-1.52487">
        <ele>24</ele>
        <time>2023-11-15T10:38:04Z</time>
      </trkpt>
      <trkpt lat="47.34586" lon="-1.52459">
        <ele>24</ele>
        <time>2023-11-15T10:38:37Z</time>
      </trkpt>
      <trkpt lat="47.34607" lon="-1.52433">
        <ele>24</ele>
        <time>2023-11-15T10:39:13Z</time>
      </trkpt>
      <trkpt lat="47.34612" lon="-1.5243">
        <ele>24</ele>
        <time>2023-11-15T10:39:21Z</time>
      </trkpt>
      <trkpt lat="47.34772" lon="-1.52425">
        <ele>24</ele>
        <time>2023-11-15T10:42:54Z</time>
      </trkpt>
      <trkpt lat="47.34775" lon="-1.52433">
        <ele>24</ele>
        <time>2023-11-15T10:43:03Z</time>
      </trkpt>
      <trkpt lat="47.34785" lon="-1.52504">
        <ele>26</ele>
        <time>2023-11-15T10:44:08Z</time>
      </trkpt>
      <trkpt lat="47.34796" lon="-1.52513">
        <ele>26</ele>
        <time>2023-11-15T10:44:25Z</time>
      </trkpt>
      <trkpt lat="47.34913" lon="-1.52527">
        <ele>26</ele>
        <time>2023-11-15T10:47:02Z</time>
      </trkpt>
      <trkpt lat="47.34952" lon="-1.52544">
        <ele>26</ele>
        <time>2023-11-15T10:47:56Z</time>
      </trkpt>
      <trkpt lat="47.34964" lon="-1.52542">
        <ele>26</ele>
        <time>2023-11-15T10:48:12Z</time>
      </trkpt>
      <trkpt lat="47.35024" lon="-1.52496">
        <ele>25</ele>
        <time>2023-11-15T10:49:42Z</time>
      </trkpt>
      <trkpt lat="47.35029" lon="-1.5249">
        <ele>25</ele>
        <time>2023-11-15T10:49:51Z</time>
      </trkpt>
      <trkpt lat="47.35048" lon="-1.52482">
        <ele>25</ele>
        <time>2023-11-15T10:50:17Z</time>
      </trkpt>
      <trkpt lat="47.35089" lon="-1.52457">
        <ele>24</ele>
        <time>2023-11-15T10:51:16Z</time>
      </trkpt>
      <trkpt lat="47.35112" lon="-1.52438">
        <ele>23</ele>
        <time>2023-11-15T10:51:51Z</time>
      </trkpt>
      <trkpt lat="47.35123" lon="-1.52411">
        <ele>23</ele>
        <time>2023-11-15T10:52:20Z</time>
      </trkpt>
      <trkpt lat="47.35127" lon="-1.52394">
        <ele>22</ele>
        <time>2023-11-15T10:52:36Z</time>
      </trkpt>
      <trkpt lat="47.35137" lon="-1.52328">
        <ele>22</ele>
        <time>2023-11-15T10:53:37Z</time>
      </trkpt>
      <trkpt lat="47.35143" lon="-1.52304">
        <ele>21</ele>
        <time>2023-11-15T10:54:00Z</time>
      </trkpt>
      <trkpt lat="47.35149" lon="-1.52302">
        <ele>21</ele>
        <time>2023-11-15T10:54:09Z</time>
      </trkpt>
      <trkpt lat="47.3518" lon="-1.52309">
        <ele>19</ele>
        <time>2023-11-15T10:54:51Z</time>
      </trkpt>
      <trkpt lat="47.35241" lon="-1.52313">
        <ele>14</ele>
        <time>2023-11-15T10:56:12Z</time>
      </trkpt>
      <trkpt lat="47.35271" lon="-1.52319">
        <ele>12</ele>
        <time>2023-11-15T10:56:52Z</time>
      </trkpt>
      <trkpt lat="47.35288" lon="-1.52315">
        <ele>12</ele>
        <time>2023-11-15T10:57:15Z</time>
      </trkpt>
      <trkpt lat="47.3536" lon="-1.52265">
        <ele>13</ele>
        <time>2023-11-15T10:59:02Z</time>
      </trkpt>
      <trkpt lat="47.35384" lon="-1.52256">
        <ele>15</ele>
        <time>2023-11-15T10:59:35Z</time>
      </trkpt>
      <trkpt lat="47.35416" lon="-1.52235">
        <ele>18</ele>
        <time>2023-11-15T11:00:21Z</time>
      </trkpt>
      <trkpt lat="47.35424" lon="-1.52236">
        <ele>18</ele>
        <time>2023-11-15T11:00:32Z</time>
      </trkpt>
      <trkpt lat="47.35432" lon="-1.52231">
        <ele>19</ele>
        <time>2023-11-15T11:00:44Z</time>
      </trkpt>
      <trkpt lat="47.3544" lon="-1.52224">
        <ele>19</ele>
        <time>2023-11-15T11:00:56Z</time>
      </trkpt>
      <trkpt lat="47.35451" lon="-1.52206">
        <ele>20</ele>
        <time>2023-11-15T11:01:18Z</time>
      </trkpt>
      <trkpt lat="47.35462" lon="-1.52174">
        <ele>21</ele>
        <time>2023-11-15T11:01:50Z</time>
      </trkpt>
      <trkpt lat="47.35475" lon="-1.52161">
        <ele>21</ele>
        <time>2023-11-15T11:02:11Z</time>
      </trkpt>
      <trkpt lat="47.35515" lon="-1.52145">
        <ele>21</ele>
        <time>2023-11-15T11:03:07Z</time>
      </trkpt>
      <trkpt lat="47.35562" lon="-1.52132">
        <ele>20</ele>
        <time>2023-11-15T11:04:11Z</time>
      </trkpt>
      <trkpt lat="47.35626" lon="-1.52099">
        <ele>19</ele>
        <time>2023-11-15T11:05:41Z</time>
      </trkpt>
      <trkpt lat="47.35637" lon="-1.52112">
        <ele>19</ele>
        <time>2023-11-15T11:06:00Z</time>
      </trkpt>
      <trkpt lat="47.3564" lon="-1.5212">
        <ele>19</ele>
        <time>2023-11-15T11:06:08Z</time>
      </trkpt>
      <trkpt lat="47.35649" lon="-1.52121">
        <ele>18</ele>
        <time>2023-11-15T11:06:20Z</time>
      </trkpt>
      <trkpt lat="47.35718" lon="-1.52183">
        <ele>16</ele>
        <time>2023-11-15T11:08:08Z</time>
      </trkpt>
      <trkpt lat="47.35812" lon="-1.52248">
        <ele>14</ele>
        <time>2023-11-15T11:10:26Z</time>
      </trkpt>
      <trkpt lat="47.35834" lon="-1.52266">
        <ele>14</ele>
        <time>2023-11-15T11:11:00Z</time>
      </trkpt>
      <trkpt lat="47.35852" lon="-1.52274">
        <ele>14</ele>
        <time>2023-11-15T11:11:25Z</time>
      </trkpt>
      <trkpt lat="47.35862" lon="-1.52273">
        <ele>14</ele>
        <time>2023-11-15T11:11:38Z</time>
      </trkpt>
      <trkpt lat="47.35897" lon="-1.52257">
        <ele>14</ele>
        <time>2023-11-15T11:12:27Z</time>
      </trkpt>
      <trkpt lat="47.35912" lon="-1.52255">
        <ele>14</ele>
        <time>2023-11-15T11:12:47Z</time>
      </trkpt>
      <trkpt lat="47.3592" lon="-1.52251">
        <ele>14</ele>
        <time>2023-11-15T11:12:59Z</time>
      </trkpt>
      <trkpt lat="47.35982" lon="-1.52144">
        <ele>10</ele>
        <time>2023-11-15T11:15:06Z</time>
      </trkpt>
      <trkpt lat="47.35999" lon="-1.52125">
        <ele>10</ele>
        <time>2023-11-15T11:15:34Z</time>
      </trkpt>
      <trkpt lat="47.36009" lon="-1.52123">
        <ele>10</ele>
        <time>2023-11-15T11:15:48Z</time>
      </trkpt>
      <trkpt lat="47.36016" lon="-1.52125">
        <ele>10</ele>
        <time>2023-11-15T11:15:57Z</time>
      </trkpt>
      <trkpt lat="47.36056" lon="-1.5221">
        <ele>10</ele>
        <time>2023-11-15T11:17:31Z</time>
      </trkpt>
      <trkpt lat="47.36071" lon="-1.52228">
        <ele>10</ele>
        <time>2023-11-15T11:17:57Z</time>
      </trkpt>
      <trkpt lat="47.36081" lon="-1.52233">
        <ele>10</ele>
        <time>2023-11-15T11:18:11Z</time>
      </trkpt>
      <trkpt lat="47.36149" lon="-1.52254">
        <ele>11</ele>
        <time>2023-11-15T11:19:44Z</time>
      </trkpt>
      <trkpt lat="47.36202" lon="-1.52268">
        <ele>11</ele>
        <time>2023-11-15T11:20:55Z</time>
      </trkpt>
      <trkpt lat="47.36221" lon="-1.52279">
        <ele>11</ele>
        <time>2023-11-15T11:21:23Z</time>
      </trkpt>
      <trkpt lat="47.36229" lon="-1.52287">
        <ele>11</ele>
        <time>2023-11-15T11:21:36Z</time>
      </trkpt>
      <trkpt lat="47.36241" lon="-1.52309">
        <ele>11</ele>
        <time>2023-11-15T11:22:01Z</time>
      </trkpt>
      <trkpt lat="47.36269" lon="-1.52395">
        <ele>12</ele>
        <time>2023-11-15T11:23:27Z</time>
      </trkpt>
      <trkpt lat="47.36293" lon="-1.52444">
        <ele>12</ele>
        <time>2023-11-15T11:24:22Z</time>
      </trkpt>
      <trkpt lat="47.36317" lon="-1.52503">
        <ele>10</ele>
        <time>2023-11-15T11:25:24Z</time>
      </trkpt>
      <trkpt lat="47.36361" lon="-1.52559">
        <ele>10</ele>
        <time>2023-11-15T11:26:42Z</time>
      </trkpt>
      <trkpt lat="47.36412" lon="-1.52639">
        <ele>8</ele>
        <time>2023-11-15T11:28:21Z</time>
      </trkpt>
      <trkpt lat="47.3642" lon="-1.52644">
        <ele>8</ele>
        <time>2023-11-15T11:28:33Z</time>
      </trkpt>
      <trkpt lat="47.36435" lon="-1.52639">
        <ele>8</ele>
        <time>2023-11-15T11:28:53Z</time>
      </trkpt>
      <trkpt lat="47.36475" lon="-1.52632">
        <ele>8</ele>
        <time>2023-11-15T11:29:47Z</time>
      </trkpt>
      <trkpt lat="47.36502" lon="-1.52623">
        <ele>9</ele>
        <time>2023-11-15T11:30:24Z</time>
      </trkpt>
      <trkpt lat="47.36518" lon="-1.52614">
        <ele>9</ele>
        <time>2023-11-15T11:30:47Z</time>
      </trkpt>
      <trkpt lat="47.3654" lon="-1.52596">
        <ele>10</ele>
        <time>2023-11-15T11:31:20Z</time>
      </trkpt>
      <trkpt lat="47.36565" lon="-1.52565">
        <ele>11</ele>
        <time>2023-11-15T11:32:04Z</time>
      </trkpt>
      <trkpt lat="47.36597" lon="-1.52517">
        <ele>11</ele>
        <time>2023-11-15T11:33:05Z</time>
      </trkpt>
      <trkpt lat="47.36605" lon="-1.52501">
        <ele>11</ele>
        <time>2023-11-15T11:33:23Z</time>
      </trkpt>
      <trkpt lat="47.36613" lon="-1.52474">
        <ele>10</ele>
        <time>2023-11-15T11:33:49Z</time>
      </trkpt>
      <trkpt lat="47.36624" lon="-1.52452">
        <ele>10</ele>
        <time>2023-11-15T11:34:14Z</time>
      </trkpt>
      <trkpt lat="47.36636" lon="-1.52395">
        <ele>11</ele>
        <time>2023-11-15T11:35:08Z</time>
      </trkpt>
      <trkpt lat="47.36651" lon="-1.52249">
        <ele>11</ele>
        <time>2023-11-15T11:37:21Z</time>
      </trkpt>
      <trkpt lat="47.36659" lon="-1.52214">
        <ele>11</ele>
        <time>2023-11-15T11:37:55Z</time>
      </trkpt>
      <trkpt lat="47.36703" lon="-1.52116">
        <ele>10</ele>
        <time>2023-11-15T11:39:41Z</time>
      </trkpt>
      <trkpt lat="47.36783" lon="-1.51906">
        <ele>8</ele>
        <time>2023-11-15T11:43:19Z</time>
      </trkpt>
      <trkpt lat="47.36808" lon="-1.51829">
        <ele>9</ele>
        <time>2023-11-15T11:44:36Z</time>
      </trkpt>
      <trkpt lat="47.3681" lon="-1.51816">
        <ele>9</ele>
        <time>2023-11-15T11:44:48Z</time>
      </trkpt>
      <trkpt lat="47.36808" lon="-1.51775">
        <ele>8</ele>
        <time>2023-11-15T11:45:25Z</time>
      </trkpt>
      <trkpt lat="47.36798" lon="-1.517">
        <ele>9</ele>
        <time>2023-11-15T11:46:34Z</time>
      </trkpt>
      <trkpt lat="47.36802" lon="-1.51684">
        <ele>10</ele>
        <time>2023-11-15T11:46:50Z</time>
      </trkpt>
      <trkpt lat="47.36823" lon="-1.51681">
        <ele>10</ele>
        <time>2023-11-15T11:47:18Z</time>
      </trkpt>
      <trkpt lat="47.36996" lon="-1.51675">
        <ele>12</ele>
        <time>2023-11-15T11:51:09Z</time>
      </trkpt>
      <trkpt lat="47.37011" lon="-1.51676">
        <ele>12</ele>
        <time>2023-11-15T11:51:29Z</time>
      </trkpt>
      <trkpt lat="47.37024" lon="-1.51685">
        <ele>12</ele>
        <time>2023-11-15T11:51:48Z</time>
      </trkpt>
      <trkpt lat="47.3704" lon="-1.51701">
        <ele>12</ele>
        <time>2023-11-15T11:52:14Z</time>
      </trkpt>
      <trkpt lat="47.37051" lon="-1.51706">
        <ele>12</ele>
        <time>2023-11-15T11:52:29Z</time>
      </trkpt>
      <trkpt lat="47.37067" lon="-1.51706">
        <ele>12</ele>
        <time>2023-11-15T11:52:50Z</time>
      </trkpt>
      <trkpt lat="47.37075" lon="-1.51711">
        <ele>12</ele>
        <time>2023-11-15T11:53:02Z</time>
      </trkpt>
      <trkpt lat="47.37079" lon="-1.51717">
        <ele>13</ele>
        <time>2023-11-15T11:53:10Z</time>
      </trkpt>
      <trkpt lat="47.37087" lon="-1.51715">
        <ele>13</ele>
        <time>2023-11-15T11:53:21Z</time>
      </trkpt>
      <trkpt lat="47.37096" lon="-1.51707">
        <ele>13</ele>
        <time>2023-11-15T11:53:35Z</time>
      </trkpt>
      <trkpt lat="47.37105" lon="-1.51704">
        <ele>13</ele>
        <time>2023-11-15T11:53:47Z</time>
      </trkpt>
      <trkpt lat="47.37192" lon="-1.51558">
        <ele>13</ele>
        <time>2023-11-15T11:56:43Z</time>
      </trkpt>
      <trkpt lat="47.3724" lon="-1.51467">
        <ele>10</ele>
        <time>2023-11-15T11:58:27Z</time>
      </trkpt>
      <trkpt lat="47.37262" lon="-1.5144">
        <ele>10</ele>
        <time>2023-11-15T11:59:05Z</time>
      </trkpt>
      <trkpt lat="47.37273" lon="-1.51432">
        <ele>10</ele>
        <time>2023-11-15T11:59:21Z</time>
      </trkpt>
      <trkpt lat="47.37279" lon="-1.51431">
        <ele>10</ele>
        <time>2023-11-15T11:59:29Z</time>
      </trkpt>
      <trkpt lat="47.37346" lon="-1.51429">
        <ele>9</ele>
        <time>2023-11-15T12:00:59Z</time>
      </trkpt>
      <trkpt lat="47.37358" lon="-1.51425">
        <ele>9</ele>
        <time>2023-11-15T12:01:15Z</time>
      </trkpt>
      <trkpt lat="47.37375" lon="-1.51405">
        <ele>10</ele>
        <time>2023-11-15T12:01:44Z</time>
      </trkpt>
      <trkpt lat="47.37393" lon="-1.51378">
        <ele>11</ele>
        <time>2023-11-15T12:02:19Z</time>
      </trkpt>
      <trkpt lat="47.37412" lon="-1.51342">
        <ele>12</ele>
        <time>2023-11-15T12:03:00Z</time>
      </trkpt>
      <trkpt lat="47.37417" lon="-1.51321">
        <ele>12</ele>
        <time>2023-11-15T12:03:20Z</time>
      </trkpt>
      <trkpt lat="47.37425" lon="-1.51237">
        <ele>11</ele>
        <time>2023-11-15T12:04:37Z</time>
      </trkpt>
      <trkpt lat="47.37425" lon="-1.51174">
        <ele>9</ele>
        <time>2023-11-15T12:05:33Z</time>
      </trkpt>
      <trkpt lat="47.37431" lon="-1.51088">
        <ele>8</ele>
        <time>2023-11-15T12:06:52Z</time>
      </trkpt>
      <trkpt lat="47.37431" lon="-1.51074">
        <ele>8</ele>
        <time>2023-11-15T12:07:04Z</time>
      </trkpt>
      <trkpt lat="47.37421" lon="-1.51061">
        <ele>8</ele>
        <time>2023-11-15T12:07:22Z</time>
      </trkpt>
      <trkpt lat="47.3742" lon="-1.51053">
        <ele>8</ele>
        <time>2023-11-15T12:07:29Z</time>
      </trkpt>
      <trkpt lat="47.37441" lon="-1.50934">
        <ele>7</ele>
        <time>2023-11-15T12:09:21Z</time>
      </trkpt>
      <trkpt lat="47.37457" lon="-1.50894">
        <ele>6</ele>
        <time>2023-11-15T12:10:03Z</time>
      </trkpt>
      <trkpt lat="47.37488" lon="-1.50871">
        <ele>6</ele>
        <time>2023-11-15T12:10:49Z</time>
      </trkpt>
      <trkpt lat="47.37494" lon="-1.50869">
        <ele>6</ele>
        <time>2023-11-15T12:10:57Z</time>
      </trkpt>
      <trkpt lat="47.37511" lon="-1.50868">
        <ele>6</ele>
        <time>2023-11-15T12:11:20Z</time>
      </trkpt>
      <trkpt lat="47.37559" lon="-1.50875">
        <ele>7</ele>
        <time>2023-11-15T12:12:24Z</time>
      </trkpt>
      <trkpt lat="47.37577" lon="-1.50867">
        <ele>6</ele>
        <time>2023-11-15T12:12:49Z</time>
      </trkpt>
      <trkpt lat="47.37586" lon="-1.50855">
        <ele>6</ele>
        <time>2023-11-15T12:13:05Z</time>
      </trkpt>
      <trkpt lat="47.37624" lon="-1.50781">
        <ele>7</ele>
        <time>2023-11-15T12:14:29Z</time>
      </trkpt>
      <trkpt lat="47.37631" lon="-1.50753">
        <ele>7</ele>
        <time>2023-11-15T12:14:56Z</time>
      </trkpt>
      <trkpt lat="47.37642" lon="-1.50731">
        <ele>8</ele>
        <time>2023-11-15T12:15:21Z</time>
      </trkpt>
      <trkpt lat="47.37642" lon="-1.50684">
        <ele>8</ele>
        <time>2023-11-15T12:16:03Z</time>
      </trkpt>
      <trkpt lat="47.37644" lon="-1.50675">
        <ele>8</ele>
        <time>2023-11-15T12:16:12Z</time>
      </trkpt>
      <trkpt lat="47.37648" lon="-1.50671">
        <ele>9</ele>
        <time>2023-11-15T12:16:18Z</time>
      </trkpt>
      <trkpt lat="47.37672" lon="-1.50671">
        <ele>9</ele>
        <time>2023-11-15T12:16:50Z</time>
      </trkpt>
      <trkpt lat="47.37687" lon="-1.50667">
        <ele>9</ele>
        <time>2023-11-15T12:17:11Z</time>
      </trkpt>
      <trkpt lat="47.37731" lon="-1.5067">
        <ele>11</ele>
        <time>2023-11-15T12:18:10Z</time>
      </trkpt>
      <trkpt lat="47.37805" lon="-1.50655">
        <ele>13</ele>
        <time>2023-11-15T12:19:49Z</time>
      </trkpt>
      <trkpt lat="47.37843" lon="-1.50654">
        <ele>14</ele>
        <time>2023-11-15T12:20:40Z</time>
      </trkpt>
      <trkpt lat="47.37882" lon="-1.50648">
        <ele>13</ele>
        <time>2023-11-15T12:21:32Z</time>
      </trkpt>
      <trkpt lat="47.37894" lon="-1.50648">
        <ele>13</ele>
        <time>2023-11-15T12:21:48Z</time>
      </trkpt>
      <trkpt lat="47.379" lon="-1.50651">
        <ele>13</ele>
        <time>2023-11-15T12:21:57Z</time>
      </trkpt>
      <trkpt lat="47.37911" lon="-1.50666">
        <ele>14</ele>
        <time>2023-11-15T12:22:17Z</time>
      </trkpt>
      <trkpt lat="47.3792" lon="-1.50671">
        <ele>14</ele>
        <time>2023-11-15T12:22:30Z</time>
      </trkpt>
      <trkpt lat="47.37926" lon="-1.5067">
        <ele>13</ele>
        <time>2023-11-15T12:22:38Z</time>
      </trkpt>
      <trkpt lat="47.37944" lon="-1.50658">
        <ele>11</ele>
        <time>2023-11-15T12:23:04Z</time>
      </trkpt>
      <trkpt lat="47.37958" lon="-1.5066">
        <ele>10</ele>
        <time>2023-11-15T12:23:23Z</time>
      </trkpt>
      <trkpt lat="47.37964" lon="-1.50664">
        <ele>10</ele>
        <time>2023-11-15T12:23:32Z</time>
      </trkpt>
      <trkpt lat="47.37991" lon="-1.50698">
        <ele>9</ele>
        <time>2023-11-15T12:24:19Z</time>
      </trkpt>
      <trkpt lat="47.38004" lon="-1.50709">
        <ele>8</ele>
        <time>2023-11-15T12:24:39Z</time>
      </trkpt>
      <trkpt lat="47.38026" lon="-1.50717">
        <ele>7</ele>
        <time>2023-11-15T12:25:09Z</time>
      </trkpt>
      <trkpt lat="47.38059" lon="-1.50716">
        <ele>6</ele>
        <time>2023-11-15T12:25:53Z</time>
      </trkpt>
      <trkpt lat="47.38081" lon="-1.50728">
        <ele>5</ele>
        <time>2023-11-15T12:26:24Z</time>
      </trkpt>
      <trkpt lat="47.38116" lon="-1.50763">
        <ele>5</ele>
        <time>2023-11-15T12:27:21Z</time>
      </trkpt>
      <trkpt lat="47.38139" lon="-1.50774">
        <ele>6</ele>
        <time>2023-11-15T12:27:53Z</time>
      </trkpt>
      <trkpt lat="47.38161" lon="-1.50775">
        <ele>6</ele>
        <time>2023-11-15T12:28:23Z</time>
      </trkpt>
      <trkpt lat="47.38175" lon="-1.50782">
        <ele>6</ele>
        <time>2023-11-15T12:28:42Z</time>
      </trkpt>
      <trkpt lat="47.38214" lon="-1.50824">
        <ele>6</ele>
        <time>2023-11-15T12:29:47Z</time>
      </trkpt>
      <trkpt lat="47.3824" lon="-1.5086">
        <ele>6</ele>
        <time>2023-11-15T12:30:34Z</time>
      </trkpt>
      <trkpt lat="47.38249" lon="-1.50889">
        <ele>6</ele>
        <time>2023-11-15T12:31:03Z</time>
      </trkpt>
      <trkpt lat="47.38259" lon="-1.50938">
        <ele>7</ele>
        <time>2023-11-15T12:31:49Z</time>
      </trkpt>
      <trkpt lat="47.38275" lon="-1.5099">
        <ele>7</ele>
        <time>2023-11-15T12:32:41Z</time>
      </trkpt>
      <trkpt lat="47.38284" lon="-1.51004">
        <ele>7</ele>
        <time>2023-11-15T12:32:58Z</time>
      </trkpt>
      <trkpt lat="47.38301" lon="-1.5102">
        <ele>8</ele>
        <time>2023-11-15T12:33:25Z</time>
      </trkpt>
      <trkpt lat="47.38313" lon="-1.51045">
        <ele>8</ele>
        <time>2023-11-15T12:33:53Z</time>
      </trkpt>
      <trkpt lat="47.38318" lon="-1.51047">
        <ele>8</ele>
        <time>2023-11-15T12:34:00Z</time>
      </trkpt>
      <trkpt lat="47.38339" lon="-1.51045">
        <ele>8</ele>
        <time>2023-11-15T12:34:28Z</time>
      </trkpt>
      <trkpt lat="47.38348" lon="-1.51052">
        <ele>8</ele>
        <time>2023-11-15T12:34:42Z</time>
      </trkpt>
      <trkpt lat="47.3837" lon="-1.51094">
        <ele>7</ele>
        <time>2023-11-15T12:35:29Z</time>
      </trkpt>
      <trkpt lat="47.38458" lon="-1.51288">
        <ele>6</ele>
        <time>2023-11-15T12:39:00Z</time>
      </trkpt>
      <trkpt lat="47.38472" lon="-1.513">
        <ele>6</ele>
        <time>2023-11-15T12:39:22Z</time>
      </trkpt>
      <trkpt lat="47.38496" lon="-1.51329">
        <ele>7</ele>
        <time>2023-11-15T12:40:03Z</time>
      </trkpt>
      <trkpt lat="47.38513" lon="-1.5136">
        <ele>7</ele>
        <time>2023-11-15T12:40:39Z</time>
      </trkpt>
      <trkpt lat="47.38653" lon="-1.51726">
        <ele>8</ele>
        <time>2023-11-15T12:46:59Z</time>
      </trkpt>
      <trkpt lat="47.3874" lon="-1.51966">
        <ele>7</ele>
        <time>2023-11-15T12:51:05Z</time>
      </trkpt>
      <trkpt lat="47.38758" lon="-1.52033">
        <ele>7</ele>
        <time>2023-11-15T12:52:10Z</time>
      </trkpt>
      <trkpt lat="47.38806" lon="-1.52288">
        <ele>9</ele>
        <time>2023-11-15T12:56:10Z</time>
      </trkpt>
      <trkpt lat="47.38842" lon="-1.5253">
        <ele>11</ele>
        <time>2023-11-15T12:59:53Z</time>
      </trkpt>
      <trkpt lat="47.38852" lon="-1.52615">
        <ele>11</ele>
        <time>2023-11-15T13:01:11Z</time>
      </trkpt>
      <trkpt lat="47.38879" lon="-1.52698">
        <ele>12</ele>
        <time>2023-11-15T13:02:35Z</time>
      </trkpt>
      <trkpt lat="47.38882" lon="-1.52758">
        <ele>13</ele>
        <time>2023-11-15T13:03:29Z</time>
      </trkpt>
      <trkpt lat="47.38878" lon="-1.52788">
        <ele>14</ele>
        <time>2023-11-15T13:03:56Z</time>
      </trkpt>
      <trkpt lat="47.38849" lon="-1.52914">
        <ele>14</ele>
        <time>2023-11-15T13:05:57Z</time>
      </trkpt>
      <trkpt lat="47.38844" lon="-1.52979">
        <ele>14</ele>
        <time>2023-11-15T13:06:56Z</time>
      </trkpt>
      <trkpt lat="47.38847" lon="-1.52983">
        <ele>14</ele>
        <time>2023-11-15T13:07:01Z</time>
      </trkpt>
      <trkpt lat="47.38865" lon="-1.52975">
        <ele>13</ele>
        <time>2023-11-15T13:07:26Z</time>
      </trkpt>
      <trkpt lat="47.38881" lon="-1.52974">
        <ele>13</ele>
        <time>2023-11-15T13:07:48Z</time>
      </trkpt>
      <trkpt lat="47.38895" lon="-1.52976">
        <ele>13</ele>
        <time>2023-11-15T13:08:06Z</time>
      </trkpt>
      <trkpt lat="47.38952" lon="-1.52994">
        <ele>12</ele>
        <time>2023-11-15T13:09:24Z</time>
      </trkpt>
      <trkpt lat="47.38959" lon="-1.52999">
        <ele>12</ele>
        <time>2023-11-15T13:09:35Z</time>
      </trkpt>
      <trkpt lat="47.38964" lon="-1.53007">
        <ele>12</ele>
        <time>2023-11-15T13:09:44Z</time>
      </trkpt>
      <trkpt lat="47.38973" lon="-1.53038">
        <ele>12</ele>
        <time>2023-11-15T13:10:15Z</time>
      </trkpt>
      <trkpt lat="47.38976" lon="-1.53081">
        <ele>13</ele>
        <time>2023-11-15T13:10:54Z</time>
      </trkpt>
      <trkpt lat="47.38967" lon="-1.53225">
        <ele>16</ele>
        <time>2023-11-15T13:13:05Z</time>
      </trkpt>
      <trkpt lat="47.38974" lon="-1.53227">
        <ele>16</ele>
        <time>2023-11-15T13:13:14Z</time>
      </trkpt>
      <trkpt lat="47.38983" lon="-1.53212">
        <ele>16</ele>
        <time>2023-11-15T13:13:32Z</time>
      </trkpt>
      <trkpt lat="47.39033" lon="-1.53103">
        <ele>14</ele>
        <time>2023-11-15T13:15:31Z</time>
      </trkpt>
      <trkpt lat="47.39069" lon="-1.53042">
        <ele>14</ele>
        <time>2023-11-15T13:16:44Z</time>
      </trkpt>
      <trkpt lat="47.39089" lon="-1.53014">
        <ele>13</ele>
        <time>2023-11-15T13:17:21Z</time>
      </trkpt>
      <trkpt lat="47.39111" lon="-1.52993">
        <ele>13</ele>
        <time>2023-11-15T13:17:56Z</time>
      </trkpt>
      <trkpt lat="47.39162" lon="-1.52963">
        <ele>12</ele>
        <time>2023-11-15T13:19:09Z</time>
      </trkpt>
      <trkpt lat="47.39215" lon="-1.52922">
        <ele>11</ele>
        <time>2023-11-15T13:20:29Z</time>
      </trkpt>
      <trkpt lat="47.39242" lon="-1.52904">
        <ele>10</ele>
        <time>2023-11-15T13:21:09Z</time>
      </trkpt>
      <trkpt lat="47.3927" lon="-1.52892">
        <ele>10</ele>
        <time>2023-11-15T13:21:48Z</time>
      </trkpt>
      <trkpt lat="47.39333" lon="-1.52873">
        <ele>9</ele>
        <time>2023-11-15T13:23:13Z</time>
      </trkpt>
      <trkpt lat="47.39355" lon="-1.52863">
        <ele>9</ele>
        <time>2023-11-15T13:23:44Z</time>
      </trkpt>
      <trkpt lat="47.39458" lon="-1.52803">
        <ele>9</ele>
        <time>2023-11-15T13:26:12Z</time>
      </trkpt>
      <trkpt lat="47.3949" lon="-1.52791">
        <ele>10</ele>
        <time>2023-11-15T13:26:56Z</time>
      </trkpt>
      <trkpt lat="47.3952" lon="-1.52786">
        <ele>10</ele>
        <time>2023-11-15T13:27:36Z</time>
      </trkpt>
      <trkpt lat="47.39523" lon="-1.52781">
        <ele>10</ele>
        <time>2023-11-15T13:27:42Z</time>
      </trkpt>
      <trkpt lat="47.39531" lon="-1.52776">
        <ele>10</ele>
        <time>2023-11-15T13:27:54Z</time>
      </trkpt>
      <trkpt lat="47.39834" lon="-1.53371">
        <ele>12</ele>
        <time>2023-11-15T13:39:06Z</time>
      </trkpt>
      <trkpt lat="47.39857" lon="-1.53422">
        <ele>13</ele>
        <time>2023-11-15T13:40:02Z</time>
      </trkpt>
      <trkpt lat="47.39914" lon="-1.53533">
        <ele>14</ele>
        <time>2023-11-15T13:42:08Z</time>
      </trkpt>
      <trkpt lat="47.3998" lon="-1.53672">
        <ele>17</ele>
        <time>2023-11-15T13:44:41Z</time>
      </trkpt>
      <trkpt lat="47.40004" lon="-1.53543">
        <ele>15</ele>
        <time>2023-11-15T13:46:42Z</time>
      </trkpt>
      <trkpt lat="47.40005" lon="-1.53496">
        <ele>14</ele>
        <time>2023-11-15T13:47:24Z</time>
      </trkpt>
      <trkpt lat="47.40008" lon="-1.53483">
        <ele>13</ele>
        <time>2023-11-15T13:47:37Z</time>
      </trkpt>
      <trkpt lat="47.40038" lon="-1.53411">
        <ele>11</ele>
        <time>2023-11-15T13:48:53Z</time>
      </trkpt>
      <trkpt lat="47.40092" lon="-1.53325">
        <ele>10</ele>
        <time>2023-11-15T13:50:39Z</time>
      </trkpt>
      <trkpt lat="47.40099" lon="-1.53338">
        <ele>10</ele>
        <time>2023-11-15T13:50:54Z</time>
      </trkpt>
      <trkpt lat="47.40116" lon="-1.53449">
        <ele>11</ele>
        <time>2023-11-15T13:52:37Z</time>
      </trkpt>
      <trkpt lat="47.40127" lon="-1.53483">
        <ele>11</ele>
        <time>2023-11-15T13:53:11Z</time>
      </trkpt>
      <trkpt lat="47.40142" lon="-1.53505">
        <ele>11</ele>
        <time>2023-11-15T13:53:39Z</time>
      </trkpt>
      <trkpt lat="47.40178" lon="-1.53536">
        <ele>10</ele>
        <time>2023-11-15T13:54:35Z</time>
      </trkpt>
      <trkpt lat="47.40184" lon="-1.53548">
        <ele>10</ele>
        <time>2023-11-15T13:54:48Z</time>
      </trkpt>
      <trkpt lat="47.4019" lon="-1.53569">
        <ele>10</ele>
        <time>2023-11-15T13:55:09Z</time>
      </trkpt>
      <trkpt lat="47.40201" lon="-1.53637">
        <ele>10</ele>
        <time>2023-11-15T13:56:12Z</time>
      </trkpt>
      <trkpt lat="47.40205" lon="-1.53645">
        <ele>10</ele>
        <time>2023-11-15T13:56:21Z</time>
      </trkpt>
      <trkpt lat="47.40216" lon="-1.53647">
        <ele>9</ele>
        <time>2023-11-15T13:56:36Z</time>
      </trkpt>
      <trkpt lat="47.40223" lon="-1.53645">
        <ele>9</ele>
        <time>2023-11-15T13:56:45Z</time>
      </trkpt>
      <trkpt lat="47.40237" lon="-1.53546">
        <ele>10</ele>
        <time>2023-11-15T13:58:17Z</time>
      </trkpt>
      <trkpt lat="47.40247" lon="-1.53498">
        <ele>10</ele>
        <time>2023-11-15T13:59:02Z</time>
      </trkpt>
      <trkpt lat="47.40255" lon="-1.53473">
        <ele>9</ele>
        <time>2023-11-15T13:59:27Z</time>
      </trkpt>
      <trkpt lat="47.40385" lon="-1.53265">
        <ele>9</ele>
        <time>2023-11-15T14:03:43Z</time>
      </trkpt>
      <trkpt lat="47.40431" lon="-1.53168">
        <ele>10</ele>
        <time>2023-11-15T14:05:30Z</time>
      </trkpt>
      <trkpt lat="47.40456" lon="-1.53146">
        <ele>9</ele>
        <time>2023-11-15T14:06:08Z</time>
      </trkpt>
      <trkpt lat="47.40491" lon="-1.53129">
        <ele>9</ele>
        <time>2023-11-15T14:06:58Z</time>
      </trkpt>
      <trkpt lat="47.40554" lon="-1.53087">
        <ele>8</ele>
        <time>2023-11-15T14:08:30Z</time>
      </trkpt>
      <trkpt lat="47.406" lon="-1.53061">
        <ele>8</ele>
        <time>2023-11-15T14:09:36Z</time>
      </trkpt>
      <trkpt lat="47.40617" lon="-1.53057">
        <ele>9</ele>
        <time>2023-11-15T14:09:58Z</time>
      </trkpt>
      <trkpt lat="47.40637" lon="-1.53065">
        <ele>9</ele>
        <time>2023-11-15T14:10:26Z</time>
      </trkpt>
      <trkpt lat="47.40641" lon="-1.53063">
        <ele>9</ele>
        <time>2023-11-15T14:10:32Z</time>
      </trkpt>
      <trkpt lat="47.40671" lon="-1.52931">
        <ele>10</ele>
        <time>2023-11-15T14:12:38Z</time>
      </trkpt>
      <trkpt lat="47.40678" lon="-1.52884">
        <ele>10</ele>
        <time>2023-11-15T14:13:21Z</time>
      </trkpt>
      <trkpt lat="47.40684" lon="-1.5278">
        <ele>10</ele>
        <time>2023-11-15T14:14:55Z</time>
      </trkpt>
      <trkpt lat="47.40678" lon="-1.52697">
        <ele>10</ele>
        <time>2023-11-15T14:16:11Z</time>
      </trkpt>
      <trkpt lat="47.40669" lon="-1.52642">
        <ele>10</ele>
        <time>2023-11-15T14:17:02Z</time>
      </trkpt>
      <trkpt lat="47.40651" lon="-1.52572">
        <ele>10</ele>
        <time>2023-11-15T14:18:09Z</time>
      </trkpt>
      <trkpt lat="47.4063" lon="-1.52521">
        <ele>10</ele>
        <time>2023-11-15T14:19:03Z</time>
      </trkpt>
      <trkpt lat="47.40591" lon="-1.52455">
        <ele>9</ele>
        <time>2023-11-15T14:20:22Z</time>
      </trkpt>
      <trkpt lat="47.40416" lon="-1.52207">
        <ele>8</ele>
        <time>2023-11-15T14:25:46Z</time>
      </trkpt>
      <trkpt lat="47.404" lon="-1.52178">
        <ele>9</ele>
        <time>2023-11-15T14:26:20Z</time>
      </trkpt>
      <trkpt lat="47.40375" lon="-1.5215">
        <ele>10</ele>
        <time>2023-11-15T14:27:02Z</time>
      </trkpt>
      <trkpt lat="47.40235" lon="-1.51949">
        <ele>8</ele>
        <time>2023-11-15T14:31:22Z</time>
      </trkpt>
      <trkpt lat="47.4021" lon="-1.51917">
        <ele>8</ele>
        <time>2023-11-15T14:32:06Z</time>
      </trkpt>
      <trkpt lat="47.4021" lon="-1.51909">
        <ele>8</ele>
        <time>2023-11-15T14:32:14Z</time>
      </trkpt>
      <trkpt lat="47.40223" lon="-1.51893">
        <ele>7</ele>
        <time>2023-11-15T14:32:36Z</time>
      </trkpt>
      <trkpt lat="47.40227" lon="-1.51894">
        <ele>7</ele>
        <time>2023-11-15T14:32:42Z</time>
      </trkpt>
      <trkpt lat="47.40232" lon="-1.519">
        <ele>7</ele>
        <time>2023-11-15T14:32:50Z</time>
      </trkpt>
      <trkpt lat="47.40334" lon="-1.52059">
        <ele>12</ele>
        <time>2023-11-15T14:36:08Z</time>
      </trkpt>
      <trkpt lat="47.40389" lon="-1.5213">
        <ele>9</ele>
        <time>2023-11-15T14:37:45Z</time>
      </trkpt>
      <trkpt lat="47.40412" lon="-1.52172">
        <ele>8</ele>
        <time>2023-11-15T14:38:34Z</time>
      </trkpt>
      <trkpt lat="47.40461" lon="-1.52233">
        <ele>7</ele>
        <time>2023-11-15T14:40:00Z</time>
      </trkpt>
      <trkpt lat="47.40546" lon="-1.52352">
        <ele>8</ele>
        <time>2023-11-15T14:42:36Z</time>
      </trkpt>
      <trkpt lat="47.40613" lon="-1.52451">
        <ele>9</ele>
        <time>2023-11-15T14:44:42Z</time>
      </trkpt>
      <trkpt lat="47.40631" lon="-1.5248">
        <ele>9</ele>
        <time>2023-11-15T14:45:18Z</time>
      </trkpt>
      <trkpt lat="47.40661" lon="-1.5254">
        <ele>10</ele>
        <time>2023-11-15T14:46:25Z</time>
      </trkpt>
      <trkpt lat="47.40673" lon="-1.52575">
        <ele>10</ele>
        <time>2023-11-15T14:47:01Z</time>
      </trkpt>
      <trkpt lat="47.4069" lon="-1.52648">
        <ele>9</ele>
        <time>2023-11-15T14:48:11Z</time>
      </trkpt>
      <trkpt lat="47.40698" lon="-1.52705">
        <ele>9</ele>
        <time>2023-11-15T14:49:03Z</time>
      </trkpt>
      <trkpt lat="47.40703" lon="-1.52762">
        <ele>9</ele>
        <time>2023-11-15T14:49:55Z</time>
      </trkpt>
      <trkpt lat="47.40703" lon="-1.52815">
        <ele>9</ele>
        <time>2023-11-15T14:50:43Z</time>
      </trkpt>
      <trkpt lat="47.40699" lon="-1.52868">
        <ele>9</ele>
        <time>2023-11-15T14:51:31Z</time>
      </trkpt>
      <trkpt lat="47.4069" lon="-1.52936">
        <ele>9</ele>
        <time>2023-11-15T14:52:34Z</time>
      </trkpt>
      <trkpt lat="47.40651" lon="-1.53131">
        <ele>8</ele>
        <time>2023-11-15T14:55:37Z</time>
      </trkpt>
      <trkpt lat="47.40648" lon="-1.53213">
        <ele>7</ele>
        <time>2023-11-15T14:56:51Z</time>
      </trkpt>
      <trkpt lat="47.40653" lon="-1.53239">
        <ele>7</ele>
        <time>2023-11-15T14:57:16Z</time>
      </trkpt>
      <trkpt lat="47.40658" lon="-1.53251">
        <ele>7</ele>
        <time>2023-11-15T14:57:29Z</time>
      </trkpt>
      <trkpt lat="47.4067" lon="-1.53269">
        <ele>7</ele>
        <time>2023-11-15T14:57:51Z</time>
      </trkpt>
      <trkpt lat="47.40687" lon="-1.53281">
        <ele>6</ele>
        <time>2023-11-15T14:58:17Z</time>
      </trkpt>
      <trkpt lat="47.40782" lon="-1.53319">
        <ele>6</ele>
        <time>2023-11-15T15:00:28Z</time>
      </trkpt>
      <trkpt lat="47.40836" lon="-1.53344">
        <ele>5</ele>
        <time>2023-11-15T15:01:43Z</time>
      </trkpt>
      <trkpt lat="47.4095" lon="-1.53389">
        <ele>7</ele>
        <time>2023-11-15T15:04:21Z</time>
      </trkpt>
      <trkpt lat="47.40977" lon="-1.53405">
        <ele>7</ele>
        <time>2023-11-15T15:05:00Z</time>
      </trkpt>
      <trkpt lat="47.41012" lon="-1.53442">
        <ele>7</ele>
        <time>2023-11-15T15:05:57Z</time>
      </trkpt>
      <trkpt lat="47.4102" lon="-1.53454">
        <ele>7</ele>
        <time>2023-11-15T15:06:12Z</time>
      </trkpt>
      <trkpt lat="47.41034" lon="-1.53465">
        <ele>8</ele>
        <time>2023-11-15T15:06:33Z</time>
      </trkpt>
      <trkpt lat="47.41063" lon="-1.53499">
        <ele>8</ele>
        <time>2023-11-15T15:07:23Z</time>
      </trkpt>
      <trkpt lat="47.41092" lon="-1.53525">
        <ele>8</ele>
        <time>2023-11-15T15:08:08Z</time>
      </trkpt>
      <trkpt lat="47.41109" lon="-1.53536">
        <ele>8</ele>
        <time>2023-11-15T15:08:33Z</time>
      </trkpt>
      <trkpt lat="47.41139" lon="-1.53546">
        <ele>8</ele>
        <time>2023-11-15T15:09:14Z</time>
      </trkpt>
      <trkpt lat="47.41161" lon="-1.53547">
        <ele>8</ele>
        <time>2023-11-15T15:09:43Z</time>
      </trkpt>
      <trkpt lat="47.41184" lon="-1.53544">
        <ele>8</ele>
        <time>2023-11-15T15:10:14Z</time>
      </trkpt>
      <trkpt lat="47.41457" lon="-1.53457">
        <ele>8</ele>
        <time>2023-11-15T15:16:27Z</time>
      </trkpt>
      <trkpt lat="47.41495" lon="-1.5345">
        <ele>9</ele>
        <time>2023-11-15T15:17:18Z</time>
      </trkpt>
      <trkpt lat="47.41542" lon="-1.53452">
        <ele>10</ele>
        <time>2023-11-15T15:18:21Z</time>
      </trkpt>
      <trkpt lat="47.41582" lon="-1.53462">
        <ele>10</ele>
        <time>2023-11-15T15:19:15Z</time>
      </trkpt>
      <trkpt lat="47.41615" lon="-1.53477">
        <ele>10</ele>
        <time>2023-11-15T15:20:01Z</time>
      </trkpt>
      <trkpt lat="47.41814" lon="-1.53598">
        <ele>6</ele>
        <time>2023-11-15T15:24:48Z</time>
      </trkpt>
      <trkpt lat="47.41845" lon="-1.53608">
        <ele>6</ele>
        <time>2023-11-15T15:25:30Z</time>
      </trkpt>
      <trkpt lat="47.41865" lon="-1.53608">
        <ele>7</ele>
        <time>2023-11-15T15:25:57Z</time>
      </trkpt>
      <trkpt lat="47.41883" lon="-1.53603">
        <ele>7</ele>
        <time>2023-11-15T15:26:21Z</time>
      </trkpt>
      <trkpt lat="47.41904" lon="-1.53592">
        <ele>7</ele>
        <time>2023-11-15T15:26:51Z</time>
      </trkpt>
      <trkpt lat="47.42003" lon="-1.53531">
        <ele>7</ele>
        <time>2023-11-15T15:29:14Z</time>
      </trkpt>
      <trkpt lat="47.42175" lon="-1.5343">
        <ele>11</ele>
        <time>2023-11-15T15:33:21Z</time>
      </trkpt>
      <trkpt lat="47.42202" lon="-1.53417">
        <ele>11</ele>
        <time>2023-11-15T15:33:59Z</time>
      </trkpt>
      <trkpt lat="47.42227" lon="-1.534">
        <ele>11</ele>
        <time>2023-11-15T15:34:36Z</time>
      </trkpt>
      <trkpt lat="47.42293" lon="-1.53362">
        <ele>10</ele>
        <time>2023-11-15T15:36:10Z</time>
      </trkpt>
      <trkpt lat="47.4235" lon="-1.53337">
        <ele>10</ele>
        <time>2023-11-15T15:37:30Z</time>
      </trkpt>
      <trkpt lat="47.42495" lon="-1.53291">
        <ele>9</ele>
        <time>2023-11-15T15:40:48Z</time>
      </trkpt>
      <trkpt lat="47.42532" lon="-1.53276">
        <ele>10</ele>
        <time>2023-11-15T15:41:39Z</time>
      </trkpt>
      <trkpt lat="47.42555" lon="-1.53261">
        <ele>10</ele>
        <time>2023-11-15T15:42:12Z</time>
      </trkpt>
      <trkpt lat="47.42584" lon="-1.53228">
        <ele>10</ele>
        <time>2023-11-15T15:43:01Z</time>
      </trkpt>
    </trkseg>
  </trk>
</gpx>